User: anonymous   Login
Location: Unspecified
(0.0000°N, 0.0000°E)
Time: 00:10:55
(UTC+00:00)
Language:

NOAA 17 - Orbit

View from above orbital plane
View from above orbital plane
View from above satellite
View from above satellite

Ground track
Ground track

The orbit data is extracted from the following two-line orbital elements,

1 27453U 02032A   16270.80983973  .00000358  00000-0  15306-3 0  9995
2 27453  98.3944 240.0772 0010626 249.4250 110.6274 14.24962216741429
Epoch (UTC): 26 September 2016 19:26:10
Eccentricity: 0.0010626
inclination: 98.3944°
perigee height: 801 km
apogee height: 816 km
right ascension of ascending node: 240.0772°
argument of perigee: 249.4250°
revolutions per day: 14.24962216
mean anomaly at epoch: 110.6274°
orbit number at epoch: 74142

The dashed part of the orbit path shows where the satellite is in the earth's shadow,  

DLR